Weather History for KDXX - April, 2013

Change the Weather History Date:

Sunday, April 21, 2013

  Actual Average (KAQP) Record (KAQP)
Temperature  
Mean Temperature 37 °F -  
Max Temperature 42 °F 56 °F 73 °F (2007)
Min Temperature 32 °F 33 °F 1 °F (1997)
Degree Days  
Heating Degree Days 28    
Moisture  
Dew Point 32 °F    
Average Humidity 85    
Maximum Humidity 93    
Minimum Humidity 75    
Precipitation  
Precipitation 0.16 in - - ()
Sea Level Pressure  
Sea Level Pressure 30.08 in    
Wind  
Wind Speed 14 mph (South)    
Max Wind Speed 18 mph    
Max Gust Speed 22 mph    
Visibility 9 miles    
Events Rain , Snow    
Averages and records for this station are not official NWS values.
T = Trace of Precipitation, MM = Missing Value Source: NWS Daily Summary

Daily Weather History Graph

Daily Weather History Graph

Search for Another Location

Airport or City:

Trip Planner

Search our weather history database for the weather conditions in past years. The results will help you decide how hot, cold, wet, or windy it might be!

Date:

Astronomy

Apr. 21, 2013 Rise Set
Actual Time 6:29 AM CDT 8:18 PM CDT
Civil Twilight 5:58 AM CDT 8:49 PM CDT
Nautical Twilight 5:20 AM CDT 9:27 PM CDT
Astronomical Twilight 4:38 AM CDT 10:09 PM CDT
Moon 3:54 PM CDT (4/21) 4:03 AM CDT (4/21)
Length of Visible Light 14h 51m
Length of Day
13h 48m
Waxing Gibbous, 80% of the Moon is Illuminated
Apr 21
Waxing Gibbous
Apr 25
Full
May 2
Last Quarter
May 9
New
May 17
First Quarter

Hourly Weather History & Observations

Time (CDT) Temp. Windchill Dew Point Humidity Pressure Visibility Wind Dir Wind Speed Gust Speed Precip Events Conditions
12:13 AM 32.0 °F 21.6 °F 30.2 °F 93% 30.20 in 5.0 mi SE 15.0 mph - N/A   Mostly Cloudy
12:34 AM 32.0 °F 20.8 °F 30.2 °F 93% 30.19 in 4.0 mi SE 17.3 mph - N/A Snow Light Snow
12:53 AM 32.0 °F 21.2 °F 30.2 °F 93% 30.19 in 7.0 mi SE 16.1 mph - N/A Snow Light Snow
1:14 AM 32.0 °F 22.1 °F 30.2 °F 93% 30.18 in 10.0 mi SE 13.8 mph - N/A   Mostly Cloudy
1:34 AM 33.8 °F 23.9 °F 30.2 °F 87% 30.17 in 10.0 mi SE 15.0 mph - N/A   Mostly Cloudy
1:53 AM 33.8 °F 23.9 °F 30.2 °F 87% 30.16 in 10.0 mi ESE 15.0 mph - N/A   Overcast
2:14 AM 33.8 °F 23.5 °F 30.2 °F 87% 30.15 in 7.0 mi ESE 16.1 mph - N/A   Mostly Cloudy
2:34 AM 33.8 °F 23.9 °F 30.2 °F 87% 30.14 in 7.0 mi SE 15.0 mph - N/A   Overcast
2:53 AM 33.8 °F 23.9 °F 30.2 °F 87% 30.14 in 10.0 mi SE 15.0 mph - N/A   Overcast
3:14 AM 33.8 °F 23.5 °F 30.2 °F 87% 30.13 in 10.0 mi SE 16.1 mph - N/A   Overcast
3:34 AM 33.8 °F 23.2 °F 30.2 °F 87% 30.12 in 10.0 mi SE 17.3 mph - N/A   Overcast
3:53 AM 33.8 °F 23.9 °F 30.2 °F 87% 30.12 in 10.0 mi SE 15.0 mph - N/A   Overcast
4:14 AM 33.8 °F 23.2 °F 30.2 °F 87% 30.11 in 10.0 mi SE 17.3 mph - N/A   Light Drizzle
4:34 AM 33.8 °F 23.2 °F 30.2 °F 87% 30.10 in 10.0 mi SE 17.3 mph 21.9 mph N/A   Overcast
4:53 AM 33.8 °F 23.9 °F 30.2 °F 87% 30.10 in 10.0 mi SE 15.0 mph - N/A   Overcast
5:14 AM 33.8 °F 22.8 °F 30.2 °F 87% 30.09 in 10.0 mi SE 18.4 mph - N/A   Drizzle
5:34 AM 33.8 °F 22.8 °F 30.2 °F 87% 30.09 in 10.0 mi SE 18.4 mph - N/A   Overcast
5:53 AM 33.8 °F 23.2 °F 30.2 °F 87% 30.08 in 10.0 mi SE 17.3 mph - N/A   Overcast
6:14 AM 33.8 °F 23.5 °F 30.2 °F 87% 30.08 in 10.0 mi SE 16.1 mph - N/A   Overcast
6:34 AM 33.8 °F 23.5 °F 30.2 °F 87% 30.08 in 10.0 mi SE 16.1 mph - N/A   Mostly Cloudy
6:53 AM 33.8 °F 23.5 °F 30.2 °F 87% 30.07 in 10.0 mi SE 16.1 mph - N/A   Mostly Cloudy
7:14 AM 33.8 °F 23.2 °F 30.2 °F 87% 30.07 in 10.0 mi SSE 17.3 mph - N/A   Mostly Cloudy
7:33 AM 33.8 °F 22.8 °F 28.4 °F 81% 30.07 in 10.0 mi SSE 18.4 mph - N/A   Mostly Cloudy
7:53 AM 35.6 °F 25.2 °F 30.2 °F 81% 30.06 in 10.0 mi SSE 18.4 mph - N/A   Mostly Cloudy
8:14 AM 35.6 °F 25.5 °F 30.2 °F 81% 30.05 in 10.0 mi SSE 17.3 mph - N/A   Clear
8:33 AM 35.6 °F 25.2 °F 30.2 °F 81% 30.04 in 10.0 mi SSE 18.4 mph - N/A   Clear
8:53 AM 35.6 °F 25.2 °F 30.2 °F 81% 30.04 in 10.0 mi SSE 18.4 mph - N/A   Clear
9:14 AM 35.6 °F 25.5 °F 30.2 °F 81% 30.03 in 10.0 mi SSE 17.3 mph - N/A   Clear
9:33 AM 37.4 °F 27.8 °F 32.0 °F 81% 30.03 in 10.0 mi SSE 17.3 mph - N/A   Clear
9:54 AM 37.4 °F 27.5 °F 32.0 °F 81% 30.02 in 10.0 mi SSE 18.4 mph - N/A   Clear
10:14 AM 37.4 °F 27.5 °F 32.0 °F 81% 30.01 in 10.0 mi SSE 18.4 mph - N/A   Clear
10:33 AM 37.4 °F 28.2 °F 32.0 °F 81% 30.02 in 10.0 mi SSE 16.1 mph - N/A   Clear
10:54 AM 39.2 °F 31.2 °F 33.8 °F 81% 30.01 in 10.0 mi SSE 13.8 mph - N/A   Clear
11:14 AM 39.2 °F 31.2 °F 33.8 °F 81% 30.01 in 10.0 mi SSE 13.8 mph - N/A   Clear
11:33 AM 39.2 °F 31.6 °F 33.8 °F 81% 30.01 in 10.0 mi SSE 12.7 mph - N/A   Clear
11:54 AM 39.2 °F 31.2 °F 33.8 °F 81% 30.01 in 10.0 mi SSE 13.8 mph - N/A   Clear
12:14 PM 41.0 °F 33.9 °F 33.8 °F 76% 30.00 in 10.0 mi SSE 12.7 mph - N/A   Clear
12:33 PM 41.0 °F 33.5 °F 35.6 °F 81% 29.99 in 10.0 mi SSE 13.8 mph - N/A   Clear
12:54 PM 42.8 °F 36.6 °F 35.6 °F 76% 29.99 in 10.0 mi South 11.5 mph - N/A   Scattered Clouds
1:14 PM 42.8 °F 37.0 °F 35.6 °F 76% 29.99 in 10.0 mi SSE 10.4 mph - N/A   Scattered Clouds
1:33 PM 41.0 °F 34.3 °F 35.6 °F 81% 29.99 in 10.0 mi South 11.5 mph - N/A   Drizzle
1:54 PM 39.2 °F 37.0 °F 35.6 °F 87% 29.99 in 4.0 mi SSE 3.5 mph - 0.02 in Rain Heavy Rain
2:14 PM 39.2 °F 33.6 °F 35.6 °F 87% 29.98 in 5.0 mi SSE 8.1 mph - 0.05 in Rain Rain
2:33 PM 39.2 °F 33.6 °F 35.6 °F 87% 29.98 in 7.0 mi SSE 8.1 mph - 0.08 in Rain Rain
2:54 PM 39.2 °F 37.0 °F 35.6 °F 87% 30.00 in 7.0 mi SW 3.5 mph - 0.13 in Rain Rain
3:14 PM 39.2 °F 35.9 °F 37.4 °F 93% 30.01 in 5.0 mi West 4.6 mph - 0.01 in Rain Light Rain
3:33 PM 39.2 °F 37.0 °F 37.4 °F 93% 30.01 in 7.0 mi WSW 3.5 mph - 0.01 in Rain Rain
3:54 PM 39.2 °F 35.0 °F 37.4 °F 93% 30.01 in 7.0 mi West 5.8 mph - 0.01 in   Drizzle
4:14 PM 39.2 °F 34.2 °F 37.4 °F 93% 30.01 in 10.0 mi West 6.9 mph - N/A   Mostly Cloudy
4:33 PM 41.0 °F 37.1 °F 37.4 °F 87% 30.02 in 10.0 mi West 5.8 mph - N/A   Mostly Cloudy
4:54 PM 41.0 °F 35.2 °F 37.4 °F 87% 30.02 in 10.0 mi West 9.2 mph - N/A   Mostly Cloudy
5:14 PM 41.0 °F 34.3 °F 37.4 °F 87% 30.02 in 10.0 mi WNW 11.5 mph 16.1 mph N/A   Mostly Cloudy
5:33 PM 41.0 °F 32.2 °F 35.6 °F 81% 30.03 in 10.0 mi WNW 18.4 mph - N/A   Mostly Cloudy
5:54 PM 39.2 °F 30.8 °F 35.6 °F 87% 30.04 in 10.0 mi WNW 15.0 mph - N/A   Mostly Cloudy
6:14 PM 39.2 °F 30.8 °F 35.6 °F 87% 30.05 in 10.0 mi NW 15.0 mph 20.7 mph N/A   Mostly Cloudy
6:33 PM 39.2 °F 31.2 °F 35.6 °F 87% 30.06 in 10.0 mi WNW 13.8 mph 17.3 mph N/A   Mostly Cloudy
6:54 PM 39.2 °F 31.2 °F 33.8 °F 81% 30.07 in 10.0 mi NW 13.8 mph - N/A   Overcast
7:14 PM 39.2 °F 32.0 °F 33.8 °F 81% 30.08 in 10.0 mi NW 11.5 mph - N/A   Overcast
7:33 PM 39.2 °F 32.5 °F 33.8 °F 81% 30.09 in 10.0 mi NW 10.4 mph - N/A   Overcast
7:54 PM 37.4 °F 30.8 °F 33.8 °F 87% 30.10 in 10.0 mi NW 9.2 mph - N/A   Overcast
8:14 PM 37.4 °F 28.9 °F 33.8 °F 87% 30.11 in 10.0 mi NW 13.8 mph 20.7 mph N/A   Overcast
8:33 PM 37.4 °F 28.5 °F 33.8 °F 87% 30.12 in 10.0 mi NW 15.0 mph 20.7 mph N/A   Overcast
8:54 PM 37.4 °F 29.3 °F 32.0 °F 81% 30.13 in 10.0 mi NW 12.7 mph 17.3 mph N/A   Overcast
9:14 PM 37.4 °F 29.3 °F 32.0 °F 81% 30.14 in 10.0 mi NW 12.7 mph - N/A   Overcast
9:33 PM 37.4 °F 28.9 °F 30.2 °F 75% 30.15 in 10.0 mi NW 13.8 mph - N/A   Overcast
9:54 PM 37.4 °F 28.2 °F 30.2 °F 75% 30.16 in 10.0 mi NNW 16.1 mph - N/A   Overcast
10:13 PM 35.6 °F 27.5 °F 30.2 °F 81% 30.17 in 10.0 mi NW 11.5 mph - N/A   Mostly Cloudy
10:33 PM 35.6 °F 29.2 °F 30.2 °F 81% 30.17 in 10.0 mi NW 8.1 mph - N/A   Clear
10:54 PM 33.8 °F 27.0 °F 30.2 °F 87% 30.18 in 10.0 mi NNW 8.1 mph - N/A   Clear
11:11 PM 33.8 °F 28.6 °F 28.4 °F 81% 30.19 in 10.0 mi NW 5.8 mph - N/A   Clear
11:27 PM 33.8 °F 28.6 °F 28.4 °F 81% 30.19 in 10.0 mi NW 5.8 mph - N/A   Clear
11:54 PM 33.8 °F 27.7 °F 28.4 °F 81% 30.18 in 10.0 mi NNW 6.9 mph - N/A   Clear